{"data":{"norad_id":54143,"intl_designator":"2022-138AG","name":"ONEWEB-0525","alt_names":[],"object_type":"PAYLOAD","status":"ACTIVE","operator":null,"country":"UK","launch_date":"2022-10-22","launch_site_code":"SRILR","launch_vehicle":null,"mission":null,"orbit_class":"UNKNOWN","rcs_meters":null,"size_class":null,"mass_kg":null,"dimensions":null,"purposes":["comms"],"wikipedia_slug":null,"has_3d_model":false,"image_url":null,"decayed_at":null,"tle_current":{"epoch":"2026-09-19T18:44:19.871520Z","epoch_age_seconds":84191,"freshness":"FRESH","line1":"1 54143U 22138AG  26262.78078555  .00000131  00000+0  29461-3 0  9995","line2":"2 54143  87.9109 286.1226 0001805  78.9804 281.1532 13.19723946189308","mean_motion":13.19723946,"eccentricity":0.0001805,"inclination_deg":87.9109,"raan_deg":286.1226,"arg_perigee_deg":78.9804,"mean_anomaly_deg":281.1532,"bstar":0.00029461,"rev_number":18930,"period_min":109.11372824329,"perigee_km":1184.4092932431,"apogee_km":1187.1398653232,"semimajor_km":7563.9115792832,"source":"CELESTRAK","updated_at":"2026-09-20T09:00:44.721457Z"}}}